| time (UTC) | temp C | wind direction | speed KPH | gust KPH | rain 1hr cm | rain 24hr cm | rain mn cm | humidity % | barometer mb |
| 20260504050516 | 15 | 0 | 0.0 | 0.0 | 0.00 | 0.00 | 0.00 | 95 | 1016.5 |
| 20260504045513 | 15 | 0 | 0.0 | 0.0 | 0.00 | 0.00 | 0.00 | 95 | 1016.6 |
| 20260504045020 | 15 | 0 | 0.0 | 0.0 | 0.00 | 0.00 | 0.00 | 94 | 1016.6 |
| 20260504044541 | 16 | 0 | 0.0 | 0.0 | 0.00 | 0.00 | 0.00 | 94 | 1016.8 |
| 20260504044013 | 16 | 0 | 0.0 | 0.0 | 0.00 | 0.00 | 0.00 | 94 | 1016.7 |
| 20260504043514 | 16 | 0 | 0.0 | 0.0 | 0.00 | 0.00 | 0.00 | 93 | 1016.7 |
| 20260504043035 | 16 | 0 | 0.0 | 0.0 | 0.00 | 0.00 | 0.00 | 93 | 1016.7 |
| 20260504042513 | 16 | 0 | 0.0 | 0.0 | 0.00 | 0.00 | 0.00 | 92 | 1016.8 |
| 20260504042016 | 16 | 0 | 0.0 | 0.0 | 0.00 | 0.00 | 0.00 | 91 | 1016.7 |
| 20260504041533 | 16 | 0 | 0.0 | 0.0 | 0.00 | 0.00 | 0.00 | 91 | 1016.7 |
| 20260504041016 | 16 | 0 | 0.0 | 0.0 | 0.00 | 0.00 | 0.00 | 90 | 1016.7 |
| 20260504040519 | 16 | 0 | 0.0 | 0.0 | 0.00 | 0.00 | 0.00 | 91 | 1016.7 |
| 20260504040033 | 16 | 0 | 0.0 | 0.0 | 0.00 | 0.00 | 0.00 | 90 | 1016.8 |
| 20260504035516 | 16 | 0 | 0.0 | 0.0 | 0.00 | 0.00 | 0.00 | 90 | 1016.9 |
| 20260504035015 | 17 | 0 | 0.0 | 0.0 | 0.00 | 0.00 | 0.00 | 89 | 1016.7 |
| 20260504034539 | 17 | 0 | 0.0 | 0.0 | 0.00 | 0.00 | 0.00 | 89 | 1016.8 |
| 20260504034015 | 17 | 0 | 0.0 | 0.0 | 0.00 | 0.00 | 0.00 | 89 | 1016.7 |
| 20260504033515 | 17 | 0 | 0.0 | 0.0 | 0.00 | 0.00 | 0.00 | 88 | 1016.9 |
| 20260504033048 | 17 | 0 | 0.0 | 0.0 | 0.00 | 0.00 | 0.00 | 88 | 1016.8 |
| 20260504032513 | 17 | 0 | 0.0 | 0.0 | 0.00 | 0.00 | 0.00 | 87 | 1016.8 |
| 20260504032017 | 17 | 0 | 0.0 | 0.0 | 0.00 | 0.00 | 0.00 | 87 | 1016.8 |
| 20260504031534 | 17 | 0 | 0.0 | 0.0 | 0.00 | 0.00 | 0.00 | 87 | 1016.8 |
| 20260504031016 | 17 | 0 | 0.0 | 0.0 | 0.00 | 0.00 | 0.00 | 86 | 1016.7 |
| 20260504030515 | 17 | 0 | 0.0 | 0.0 | 0.00 | 0.00 | 0.00 | 85 | 1016.8 |
| 20260504030031 | 17 | 0 | 0.0 | 0.0 | 0.00 | 0.00 | 0.00 | 85 | 1016.8 |
| 20260504025516 | 17 | 0 | 0.0 | 0.0 | 0.00 | 0.03 | 0.00 | 85 | 1016.9 |
| 20260504025014 | 18 | 0 | 0.0 | 0.0 | 0.00 | 0.03 | 0.00 | 84 | 1016.9 |
| 20260504024535 | 18 | 0 | 0.0 | 0.0 | 0.00 | 0.03 | 0.00 | 84 | 1016.9 |
| 20260504024016 | 18 | 0 | 0.0 | 0.0 | 0.00 | 0.03 | 0.00 | 83 | 1016.9 |
| 20260504023516 | 18 | 0 | 0.0 | 0.0 | 0.00 | 0.03 | 0.00 | 83 | 1016.9 |
| 20260504023034 | 18 | 0 | 0.0 | 0.0 | 0.00 | 0.03 | 0.00 | 83 | 1016.8 |
| 20260504022514 | 18 | 0 | 0.0 | 0.0 | 0.00 | 0.03 | 0.00 | 83 | 1016.8 |
| 20260504022013 | 18 | 0 | 0.0 | 1.6 | 0.00 | 0.03 | 0.00 | 82 | 1016.9 |
| 20260504021535 | 18 | 0 | 0.0 | 3.2 | 0.00 | 0.03 | 0.00 | 82 | 1016.8 |
| 20260504021013 | 18 | 0 | 0.0 | 3.2 | 0.00 | 0.03 | 0.00 | 81 | 1016.6 |
| 20260504020515 | 18 | 0 | 0.0 | 4.8 | 0.00 | 0.03 | 0.00 | 81 | 1016.6 |
| 20260504020034 | 18 | 0 | 0.0 | 4.8 | 0.00 | 0.03 | 0.00 | 81 | 1016.5 |
| 20260504015515 | 18 | 0 | 0.0 | 3.2 | 0.00 | 0.05 | 0.00 | 80 | 1016.5 |
| 20260504015015 | 18 | 342 | 0.0 | 1.6 | 0.00 | 0.05 | 0.00 | 80 | 1016.5 |
| 20260504014536 | 18 | 341 | 0.0 | 1.6 | 0.00 | 0.05 | 0.00 | 80 | 1016.5 |
| 20260504014016 | 18 | 24 | 0.0 | 1.6 | 0.00 | 0.05 | 0.00 | 80 | 1016.4 |
| 20260504013515 | 18 | 0 | 0.0 | 3.2 | 0.00 | 0.05 | 0.00 | 79 | 1016.5 |
| 20260504013036 | 18 | 0 | 0.0 | 3.2 | 0.00 | 0.05 | 0.00 | 79 | 1016.6 |
| 20260504012516 | 18 | 31 | 0.0 | 1.6 | 0.00 | 0.05 | 0.00 | 79 | 1016.5 |
| 20260504012016 | 18 | 0 | 0.0 | 4.8 | 0.00 | 0.05 | 0.00 | 78 | 1016.4 |
| 20260504011536 | 19 | 0 | 0.0 | 4.8 | 0.00 | 0.05 | 0.00 | 78 | 1016.4 |
| 20260504011016 | 19 | 0 | 0.0 | 4.8 | 0.00 | 0.05 | 0.00 | 78 | 1016.3 |
| 20260504010515 | 19 | 0 | 0.0 | 4.8 | 0.00 | 0.05 | 0.00 | 78 | 1016.3 |
| 20260504010046 | 19 | 0 | 0.0 | 4.8 | 0.00 | 0.05 | 0.00 | 77 | 1016.1 |
| 20260504005513 | 19 | 323 | 0.0 | 4.8 | 0.00 | 0.05 | 0.00 | 77 | 1016.1 |
| 20260504005016 | 19 | 0 | 0.0 | 4.8 | 0.00 | 0.05 | 0.00 | 76 | 1016.1 |
| 20260504004532 | 20 | 0 | 0.0 | 4.8 | 0.00 | 0.05 | 0.00 | 76 | 1016.2 |
| 20260504004015 | 20 | 0 | 0.0 | 3.2 | 0.00 | 0.05 | 0.00 | 76 | 1016.3 |
| 20260504003518 | 20 | 300 | 0.0 | 3.2 | 0.00 | 0.05 | 0.00 | 75 | 1016.3 |
| 20260504003031 | 20 | 0 | 0.0 | 3.2 | 0.00 | 0.05 | 0.00 | 75 | 1016.2 |
| 20260504002514 | 20 | 330 | 0.0 | 3.2 | 0.00 | 0.05 | 0.00 | 74 | 1016.2 |
| 20260504002013 | 20 | 11 | 0.0 | 4.8 | 0.00 | 0.05 | 0.00 | 73 | 1016.2 |
| 20260504001533 | 20 | 360 | 0.0 | 4.8 | 0.00 | 0.05 | 0.00 | 73 | 1016.2 |
| 20260504001017 | 20 | 303 | 0.0 | 4.8 | 0.00 | 0.05 | 0.00 | 73 | 1016.1 |
| 20260504000518 | 20 | 328 | 0.0 | 4.8 | 0.00 | 0.05 | 0.00 | 72 | 1015.9 |
| 20260504000031 | 21 | 3 | 0.0 | 4.8 | 0.00 | 0.05 | 0.00 | 71 | 1015.8 |
| 20260503235514 | 21 | 357 | 1.6 | 4.8 | 0.00 | 0.05 | 0.00 | 71 | 1015.8 |
| 20260503235014 | 21 | 332 | 0.0 | 4.8 | 0.00 | 0.05 | 0.00 | 71 | 1015.7 |
| 20260503234534 | 21 | 350 | 0.0 | 4.8 | 0.00 | 0.05 | 0.00 | 70 | 1015.8 |
| 20260503234018 | 21 | 13 | 1.6 | 6.4 | 0.00 | 0.05 | 0.00 | 70 | 1015.7 |
| 20260503233512 | 21 | 56 | 1.6 | 8.0 | 0.00 | 0.05 | 0.00 | 69 | 1015.7 |
| 20260503233030 | 21 | 140 | 1.6 | 8.0 | 0.00 | 0.05 | 0.00 | 69 | 1015.7 |
| 20260503232514 | 21 | 330 | 1.6 | 6.4 | 0.00 | 0.05 | 0.00 | 69 | 1015.7 |
| 20260503232018 | 21 | 8 | 1.6 | 9.7 | 0.00 | 0.05 | 0.00 | 69 | 1015.8 |
| 20260503231532 | 21 | 4 | 3.2 | 9.7 | 0.00 | 0.05 | 0.00 | 68 | 1015.7 |
| 20260503231012 | 22 | 334 | 1.6 | 6.4 | 0.00 | 0.05 | 0.00 | 68 | 1015.8 |
| 20260503230514 | 22 | 32 | 1.6 | 6.4 | 0.00 | 0.05 | 0.00 | 68 | 1015.8 |
| 20260503230030 | 22 | 285 | 1.6 | 6.4 | 0.00 | 0.05 | 0.00 | 68 | 1015.7 |
| 20260503225513 | 22 | 13 | 1.6 | 4.8 | 0.00 | 0.05 | 0.00 | 67 | 1015.7 |
| 20260503225013 | 22 | 328 | 0.0 | 4.8 | 0.00 | 0.05 | 0.00 | 67 | 1015.8 |
| 20260503224532 | 22 | 356 | 1.6 | 8.0 | 0.00 | 0.05 | 0.00 | 66 | 1015.7 |
| 20260503224023 | 22 | 39 | 1.6 | 8.0 | 0.00 | 0.05 | 0.00 | 66 | 1015.8 |
| 20260503223513 | 22 | 18 | 3.2 | 8.0 | 0.00 | 0.05 | 0.00 | 65 | 1015.7 |
| 20260503223033 | 23 | 341 | 3.2 | 8.0 | 0.00 | 0.05 | 0.00 | 64 | 1015.8 |
| 20260503222512 | 23 | 357 | 1.6 | 8.0 | 0.00 | 0.05 | 0.00 | 63 | 1015.7 |
| 20260503222013 | 23 | 23 | 1.6 | 8.0 | 0.00 | 0.05 | 0.00 | 63 | 1015.7 |
| 20260503221538 | 23 | 129 | 3.2 | 6.4 | 0.00 | 0.05 | 0.00 | 63 | 1015.7 |
| 20260503221014 | 24 | 290 | 1.6 | 6.4 | 0.00 | 0.05 | 0.00 | 62 | 1015.7 |
| 20260503220513 | 23 | 34 | 1.6 | 8.0 | 0.00 | 0.05 | 0.00 | 63 | 1015.6 |
| 20260503220030 | 23 | 3 | 1.6 | 8.0 | 0.00 | 0.05 | 0.00 | 62 | 1015.5 |
| 20260503215513 | 23 | 276 | 3.2 | 8.0 | 0.00 | 0.05 | 0.00 | 62 | 1015.5 |
| 20260503215013 | 23 | 0 | 1.6 | 8.0 | 0.00 | 0.05 | 0.00 | 64 | 1015.3 |
| 20260503214529 | 23 | 20 | 3.2 | 9.7 | 0.00 | 0.05 | 0.00 | 61 | 1015.3 |
| 20260503214020 | 23 | 5 | 3.2 | 9.7 | 0.00 | 0.05 | 0.00 | 60 | 1015.3 |
| 20260503213517 | 24 | 28 | 3.2 | 9.7 | 0.00 | 0.05 | 0.00 | 58 | 1015.4 |
| 20260503213038 | 25 | 46 | 3.2 | 8.0 | 0.00 | 0.05 | 0.00 | 57 | 1015.3 |
| 20260503212513 | 25 | 18 | 1.6 | 12.9 | 0.00 | 0.05 | 0.00 | 58 | 1015.4 |
| 20260503212014 | 25 | 298 | 3.2 | 12.9 | 0.00 | 0.05 | 0.00 | 57 | 1015.4 |
| 20260503211529 | 25 | 13 | 3.2 | 11.3 | 0.00 | 0.05 | 0.00 | 57 | 1015.5 |
| 20260503211016 | 25 | 8 | 3.2 | 11.3 | 0.00 | 0.05 | 0.00 | 59 | 1015.4 |
| 20260503210512 | 25 | 90 | 1.6 | 6.4 | 0.00 | 0.05 | 0.00 | 59 | 1015.4 |
| 20260503210033 | 25 | 79 | 1.6 | 4.8 | 0.00 | 0.05 | 0.00 | 60 | 1015.4 |
| 20260503205513 | 24 | 250 | 0.0 | 8.0 | 0.00 | 0.18 | 0.00 | 59 | 1015.4 |
| 20260503205022 | 24 | 0 | 1.6 | 9.7 | 0.00 | 0.18 | 0.00 | 59 | 1015.6 |
| 20260503204532 | 25 | 11 | 1.6 | 9.7 | 0.00 | 0.18 | 0.00 | 58 | 1015.6 |
| 20260503204013 | 25 | 35 | 1.6 | 8.0 | 0.00 | 0.18 | 0.00 | 61 | 1015.7 |
| 20260503203514 | 24 | 359 | 1.6 | 9.7 | 0.00 | 0.18 | 0.00 | 59 | 1015.8 |
| 20260503203036 | 23 | 356 | 1.6 | 9.7 | 0.00 | 0.18 | 0.00 | 60 | 1015.7 |
| 20260503202518 | 24 | 346 | 4.8 | 9.7 | 0.00 | 0.18 | 0.00 | 58 | 1015.8 |
| 20260503202016 | 24 | 207 | 1.6 | 11.3 | 0.00 | 0.18 | 0.00 | 61 | 1015.6 |
| 20260503201535 | 24 | 63 | 1.6 | 11.3 | 0.00 | 0.18 | 0.00 | 60 | 1015.7 |
| 20260503201016 | 24 | 6 | 3.2 | 11.3 | 0.00 | 0.18 | 0.00 | 62 | 1015.8 |
| 20260503200514 | 24 | 30 | 1.6 | 6.4 | 0.00 | 0.18 | 0.00 | 60 | 1015.8 |
| 20260503200034 | 24 | 352 | 1.6 | 8.0 | 0.00 | 0.18 | 0.00 | 60 | 1015.9 |
| 20260503195517 | 24 | 33 | 3.2 | 8.0 | 0.00 | 0.43 | 0.00 | 61 | 1016.0 |
| 20260503195015 | 24 | 82 | 0.0 | 11.3 | 0.00 | 0.43 | 0.00 | 62 | 1016.0 |
| 20260503194533 | 25 | 56 | 3.2 | 11.3 | 0.00 | 0.43 | 0.00 | 59 | 1016.2 |
| 20260503194016 | 24 | 0 | 0.0 | 8.0 | 0.00 | 0.43 | 0.00 | 60 | 1016.2 |
| 20260503193518 | 25 | 359 | 1.6 | 8.0 | 0.00 | 0.43 | 0.00 | 58 | 1016.5 |
| 20260503193036 | 25 | 29 | 3.2 | 8.0 | 0.00 | 0.43 | 0.00 | 60 | 1016.5 |
| 20260503192514 | 25 | 0 | 0.0 | 8.0 | 0.00 | 0.43 | 0.00 | 63 | 1016.6 |
| 20260503192022 | 24 | 351 | 1.6 | 8.0 | 0.00 | 0.43 | 0.00 | 62 | 1016.7 |
| 20260503191535 | 25 | 25 | 1.6 | 8.0 | 0.00 | 0.43 | 0.00 | 60 | 1016.7 |
| 20260503191016 | 24 | 342 | 0.0 | 12.9 | 0.00 | 0.43 | 0.00 | 63 | 1016.8 |
| 20260503190515 | 24 | 27 | 1.6 | 12.9 | 0.00 | 0.43 | 0.00 | 63 | 1016.9 |
| 20260503190037 | 23 | 349 | 1.6 | 6.4 | 0.00 | 0.43 | 0.00 | 63 | 1016.9 |
| 20260503185516 | 23 | 314 | 1.6 | 6.4 | 0.00 | 0.48 | 0.00 | 63 | 1017.0 |
| 20260503185019 | 24 | 13 | 0.0 | 6.4 | 0.00 | 0.48 | 0.00 | 61 | 1017.0 |
| 20260503184534 | 25 | 49 | 1.6 | 11.3 | 0.00 | 0.48 | 0.00 | 63 | 1017.2 |
| 20260503184014 | 24 | 79 | 3.2 | 11.3 | 0.00 | 0.48 | 0.00 | 64 | 1017.0 |
| 20260503183522 | 24 | 316 | 3.2 | 9.7 | 0.00 | 0.48 | 0.00 | 65 | 1017.0 |
| 20260503183039 | 24 | 304 | 4.8 | 9.7 | 0.00 | 0.48 | 0.00 | 65 | 1017.2 |
| 20260503182513 | 23 | 281 | 3.2 | 11.3 | 0.00 | 0.48 | 0.00 | 67 | 1017.2 |
| 20260503182015 | 23 | 69 | 3.2 | 11.3 | 0.00 | 0.48 | 0.00 | 67 | 1017.2 |
| 20260503181606 | 23 | 360 | 1.6 | 8.0 | 0.00 | 0.48 | 0.00 | 68 | 1017.3 |
| 20260503181019 | 23 | 354 | 3.2 | 8.0 | 0.00 | 0.48 | 0.00 | 66 | 1017.4 |
| 20260503180514 | 23 | 117 | 0.0 | 9.7 | 0.00 | 0.48 | 0.00 | 69 | 1017.4 |
| 20260503180031 | 23 | 20 | 3.2 | 9.7 | 0.00 | 0.48 | 0.00 | 67 | 1017.6 |
| 20260503175513 | 24 | 347 | 1.6 | 8.0 | 0.00 | 0.48 | 0.00 | 65 | 1017.5 |
| 20260503175015 | 24 | 310 | 3.2 | 6.4 | 0.00 | 0.48 | 0.00 | 66 | 1017.5 |
| 20260503174537 | 23 | 210 | 1.6 | 8.0 | 0.00 | 0.48 | 0.00 | 70 | 1017.5 |
| 20260503174016 | 23 | 295 | 1.6 | 8.0 | 0.00 | 0.48 | 0.00 | 70 | 1017.5 |
| 20260503173514 | 23 | 10 | 3.2 | 14.5 | 0.00 | 0.48 | 0.00 | 69 | 1017.6 |
| 20260503173050 | 23 | 22 | 1.6 | 14.5 | 0.00 | 0.48 | 0.00 | 70 | 1017.6 |
| 20260503172515 | 23 | 333 | 3.2 | 14.5 | 0.00 | 0.48 | 0.00 | 70 | 1017.6 |
| 20260503172014 | 23 | 76 | 3.2 | 9.7 | 0.00 | 0.48 | 0.00 | 71 | 1017.7 |
| 20260503171534 | 22 | 69 | 3.2 | 9.7 | 0.00 | 0.48 | 0.00 | 74 | 1017.8 |
| 20260503171016 | 22 | 44 | 3.2 | 9.7 | 0.00 | 0.48 | 0.00 | 73 | 1017.8 |
| 20260503170517 | 22 | 319 | 3.2 | 8.0 | 0.00 | 0.48 | 0.00 | 73 | 1017.8 |
| 20260503151013 | 22 | 307 | 4.8 | 12.9 | 0.00 | 0.48 | 0.00 | 77 | 1017.7 |
| 20260503150520 | 21 | 341 | 3.2 | 12.9 | 0.00 | 0.48 | 0.00 | 79 | 1017.7 |
| 20260503131016 | 18 | 348 | 0.0 | 4.8 | 0.00 | 0.48 | 0.00 | 92 | 1017.0 |
| 20260503130516 | 18 | 331 | 0.0 | 6.4 | 0.00 | 0.48 | 0.00 | 93 | 1016.8 |
| 20260503110517 | 15 | 0 | 0.0 | 1.6 | 0.00 | 0.48 | 0.00 | 100 | 1015.8 |
| 20260503081537 | 16 | 0 | 0.0 | 0.0 | 0.00 | 0.48 | 0.00 | 100 | 1014.3 |
| 20260503081017 | 16 | 0 | 0.0 | 1.6 | 0.00 | 0.48 | 0.00 | 100 | 1014.0 |
| 20260503080517 | 16 | 0 | 0.0 | 1.6 | 0.00 | 0.48 | 0.00 | 100 | 1014.2 |
| 20260503072516 | 16 | 0 | 0.0 | 0.0 | 0.00 | 0.48 | 0.00 | 100 | 1014.2 |
| 20260503072016 | 16 | 0 | 0.0 | 0.0 | 0.00 | 0.48 | 0.00 | 100 | 1014.3 |
| 20260503071537 | 16 | 0 | 0.0 | 0.0 | 0.00 | 0.48 | 0.00 | 100 | 1014.3 |
| 20260503071014 | 16 | 0 | 0.0 | 0.0 | 0.00 | 0.48 | 0.00 | 100 | 1014.3 |
| 20260503070515 | 16 | 0 | 0.0 | 0.0 | 0.00 | 0.48 | 0.00 | 100 | 1014.3 |
| 20260503055016 | 16 | 0 | 0.0 | 1.6 | 0.00 | 0.48 | 0.00 | 100 | 1014.4 |
| 20260503054532 | 16 | 0 | 0.0 | 1.6 | 0.00 | 0.48 | 0.00 | 100 | 1014.3 |
| 20260503054014 | 17 | 0 | 0.0 | 1.6 | 0.00 | 0.48 | 0.00 | 100 | 1014.5 |